| time (UTC) | temp C | wind direction | speed KPH | gust KPH | rain 1hr cm | rain 24hr cm | rain mn cm | humidity % | barometer mb |
| 20260505160515 | 20 | 274 | 8.0 | 12.9 | 0.00 | 0.00 | 0.00 | 42 | 1015.0 |
| 20260505152951 | 20 | 138 | 6.4 | 14.5 | 0.00 | 0.00 | 0.00 | 42 | 1015.0 |
| 20260505152449 | 20 | 264 | 4.8 | 16.1 | 0.00 | 0.00 | 0.00 | 41 | 1015.1 |
| 20260505151943 | 20 | 254 | 3.2 | 9.7 | 0.00 | 0.00 | 0.00 | 43 | 1015.2 |
| 20260505151439 | 19 | 260 | 4.8 | 20.9 | 0.00 | 0.00 | 0.00 | 42 | 1015.2 |
| 20260505150937 | 19 | 280 | 8.0 | 16.1 | 0.00 | 0.00 | 0.00 | 42 | 1015.6 |
| 20260505150433 | 20 | 236 | 6.4 | 12.9 | 0.00 | 0.00 | 0.00 | 42 | 1015.4 |
| 20260505140357 | 17 | 262 | 1.6 | 9.7 | 0.00 | 0.00 | 0.00 | 56 | 1015.2 |
| 20260505124811 | 12 | 204 | 0.0 | 0.0 | 0.00 | 0.00 | 0.00 | 73 | 1014.9 |
| 20260505124308 | 11 | 205 | 0.0 | 1.6 | 0.00 | 0.00 | 0.00 | 73 | 1014.9 |
| 20260505123804 | 11 | 201 | 1.6 | 1.6 | 0.00 | 0.00 | 0.00 | 74 | 1014.9 |
| 20260505123300 | 11 | 189 | 1.6 | 3.2 | 0.00 | 0.00 | 0.00 | 75 | 1015.0 |
| 20260505122757 | 11 | 188 | 1.6 | 3.2 | 0.00 | 0.00 | 0.00 | 75 | 1015.0 |
| 20260505122255 | 10 | 208 | 0.0 | 1.6 | 0.00 | 0.00 | 0.00 | 78 | 1015.1 |
| 20260505121751 | 10 | 209 | 0.0 | 0.0 | 0.00 | 0.00 | 0.00 | 79 | 1014.9 |
| 20260505121247 | 9 | 209 | 0.0 | 0.0 | 0.00 | 0.00 | 0.00 | 82 | 1014.9 |
| 20260505120744 | 8 | 208 | 0.0 | 0.0 | 0.00 | 0.00 | 0.00 | 83 | 1014.9 |
| 20260505120240 | 8 | 208 | 0.0 | 0.0 | 0.00 | 0.00 | 0.00 | 84 | 1014.9 |
| 20260505115739 | 8 | 210 | 0.0 | 0.0 | 0.00 | 0.00 | 0.00 | 86 | 1014.6 |
| 20260505115236 | 7 | 210 | 0.0 | 0.0 | 0.00 | 0.00 | 0.00 | 87 | 1014.7 |
| 20260505114734 | 7 | 210 | 0.0 | 0.0 | 0.00 | 0.00 | 0.00 | 87 | 1014.8 |
| 20260505114229 | 7 | 209 | 0.0 | 0.0 | 0.00 | 0.00 | 0.00 | 88 | 1014.6 |
| 20260505113726 | 7 | 200 | 0.0 | 1.6 | 0.00 | 0.00 | 0.00 | 88 | 1014.7 |
| 20260505113223 | 6 | 197 | 0.0 | 1.6 | 0.00 | 0.00 | 0.00 | 89 | 1014.6 |
| 20260505112719 | 6 | 202 | 0.0 | 1.6 | 0.00 | 0.00 | 0.00 | 90 | 1014.6 |
| 20260505112217 | 6 | 237 | 0.0 | 1.6 | 0.00 | 0.00 | 0.00 | 90 | 1014.9 |
| 20260505111717 | 6 | 237 | 0.0 | 0.0 | 0.00 | 0.00 | 0.00 | 91 | 1014.8 |
| 20260505111213 | 6 | 237 | 0.0 | 0.0 | 0.00 | 0.00 | 0.00 | 91 | 1014.7 |
| 20260505110709 | 6 | 237 | 0.0 | 0.0 | 0.00 | 0.00 | 0.00 | 91 | 1014.8 |
| 20260505110207 | 5 | 237 | 0.0 | 0.0 | 0.00 | 0.00 | 0.00 | 91 | 1014.7 |
| 20260505102142 | 6 | 245 | 0.0 | 0.0 | 0.00 | 0.00 | 0.00 | 89 | 1014.1 |
| 20260505101641 | 6 | 245 | 0.0 | 0.0 | 0.00 | 0.00 | 0.00 | 89 | 1014.3 |
| 20260505101137 | 6 | 245 | 0.0 | 0.0 | 0.00 | 0.00 | 0.00 | 89 | 1013.9 |
| 20260505100633 | 6 | 245 | 0.0 | 0.0 | 0.00 | 0.00 | 0.00 | 89 | 1013.9 |
| 20260505100130 | 6 | 244 | 0.0 | 0.0 | 0.00 | 0.00 | 0.00 | 88 | 1014.1 |
| 20260505095626 | 6 | 244 | 0.0 | 0.0 | 0.00 | 0.00 | 0.00 | 88 | 1014.1 |
| 20260505095123 | 6 | 244 | 0.0 | 0.0 | 0.00 | 0.00 | 0.00 | 88 | 1014.1 |
| 20260505094619 | 6 | 244 | 0.0 | 0.0 | 0.00 | 0.00 | 0.00 | 87 | 1013.9 |
| 20260505094116 | 6 | 244 | 0.0 | 0.0 | 0.00 | 0.00 | 0.00 | 87 | 1013.8 |
| 20260505093612 | 6 | 244 | 0.0 | 0.0 | 0.00 | 0.00 | 0.00 | 86 | 1013.8 |
| 20260505093109 | 6 | 244 | 0.0 | 0.0 | 0.00 | 0.00 | 0.00 | 86 | 1013.9 |
| 20260505092607 | 7 | 244 | 0.0 | 0.0 | 0.00 | 0.00 | 0.00 | 86 | 1013.9 |
| 20260505092106 | 7 | 244 | 0.0 | 0.0 | 0.00 | 0.00 | 0.00 | 85 | 1013.9 |
| 20260505091602 | 7 | 245 | 0.0 | 0.0 | 0.00 | 0.00 | 0.00 | 85 | 1014.1 |
| 20260505091100 | 7 | 245 | 0.0 | 0.0 | 0.00 | 0.00 | 0.00 | 85 | 1014.1 |
| 20260505090557 | 7 | 245 | 0.0 | 0.0 | 0.00 | 0.00 | 0.00 | 85 | 1014.2 |
| 20260505090056 | 7 | 245 | 0.0 | 0.0 | 0.00 | 0.00 | 0.00 | 85 | 1014.1 |
| 20260505085553 | 7 | 245 | 0.0 | 0.0 | 0.00 | 0.00 | 0.00 | 85 | 1014.1 |
| 20260505085051 | 7 | 244 | 0.0 | 0.0 | 0.00 | 0.00 | 0.00 | 85 | 1014.1 |
| 20260505084548 | 7 | 244 | 0.0 | 0.0 | 0.00 | 0.00 | 0.00 | 84 | 1014.2 |
| 20260505084046 | 7 | 244 | 0.0 | 1.6 | 0.00 | 0.00 | 0.00 | 84 | 1013.9 |
| 20260505083538 | 7 | 244 | 0.0 | 0.0 | 0.00 | 0.00 | 0.00 | 83 | 1014.2 |
| 20260505083035 | 7 | 244 | 0.0 | 0.0 | 0.00 | 0.00 | 0.00 | 82 | 1014.1 |
| 20260505082530 | 7 | 244 | 0.0 | 0.0 | 0.00 | 0.00 | 0.00 | 82 | 1013.9 |
| 20260505082027 | 7 | 254 | 0.0 | 0.0 | 0.00 | 0.00 | 0.00 | 82 | 1013.8 |
| 20260505081524 | 7 | 254 | 0.0 | 0.0 | 0.00 | 0.00 | 0.00 | 81 | 1013.9 |
| 20260505081021 | 7 | 253 | 0.0 | 0.0 | 0.00 | 0.00 | 0.00 | 81 | 1013.9 |
| 20260505080517 | 8 | 252 | 0.0 | 0.0 | 0.00 | 0.00 | 0.00 | 80 | 1013.9 |
| 20260505080014 | 8 | 253 | 0.0 | 0.0 | 0.00 | 0.00 | 0.00 | 80 | 1013.8 |
| 20260505075510 | 8 | 252 | 0.0 | 0.0 | 0.00 | 0.00 | 0.00 | 79 | 1013.6 |
| 20260505075007 | 8 | 252 | 0.0 | 0.0 | 0.00 | 0.00 | 0.00 | 78 | 1013.4 |
| 20260505074504 | 8 | 258 | 0.0 | 0.0 | 0.00 | 0.00 | 0.00 | 77 | 1013.5 |
| 20260505074001 | 8 | 258 | 0.0 | 0.0 | 0.00 | 0.00 | 0.00 | 77 | 1013.6 |
| 20260505073459 | 8 | 258 | 0.0 | 0.0 | 0.00 | 0.00 | 0.00 | 77 | 1013.4 |
| 20260505072956 | 9 | 258 | 0.0 | 0.0 | 0.00 | 0.00 | 0.00 | 76 | 1013.2 |
| 20260505072452 | 9 | 258 | 0.0 | 0.0 | 0.00 | 0.00 | 0.00 | 75 | 1013.3 |
| 20260505071948 | 9 | 258 | 0.0 | 0.0 | 0.00 | 0.00 | 0.00 | 74 | 1013.2 |
| 20260505071444 | 10 | 258 | 0.0 | 0.0 | 0.00 | 0.00 | 0.00 | 73 | 1013.2 |
| 20260505070943 | 10 | 258 | 0.0 | 0.0 | 0.00 | 0.00 | 0.00 | 73 | 1013.1 |
| 20260505070439 | 10 | 258 | 0.0 | 0.0 | 0.00 | 0.00 | 0.00 | 72 | 1013.0 |
| 20260505065935 | 10 | 258 | 0.0 | 0.0 | 0.00 | 0.00 | 0.00 | 72 | 1013.2 |
| 20260505065431 | 10 | 258 | 0.0 | 0.0 | 0.00 | 0.00 | 0.00 | 71 | 1012.9 |
| 20260505064928 | 10 | 258 | 0.0 | 0.0 | 0.00 | 0.00 | 0.00 | 70 | 1013.0 |
| 20260505064425 | 10 | 258 | 0.0 | 0.0 | 0.00 | 0.00 | 0.00 | 69 | 1012.9 |
| 20260505063924 | 11 | 258 | 0.0 | 0.0 | 0.00 | 0.00 | 0.00 | 68 | 1013.0 |
| 20260505063420 | 11 | 258 | 0.0 | 0.0 | 0.00 | 0.00 | 0.00 | 65 | 1013.1 |
| 20260505062916 | 12 | 259 | 0.0 | 0.0 | 0.00 | 0.00 | 0.00 | 63 | 1012.9 |
| 20260505062414 | 12 | 259 | 0.0 | 0.0 | 0.00 | 0.00 | 0.00 | 59 | 1013.0 |
| 20260505061910 | 13 | 259 | 0.0 | 0.0 | 0.00 | 0.00 | 0.00 | 58 | 1013.2 |
| 20260505061409 | 13 | 259 | 0.0 | 1.6 | 0.00 | 0.00 | 0.00 | 56 | 1013.2 |
| 20260505060906 | 13 | 259 | 0.0 | 1.6 | 0.00 | 0.00 | 0.00 | 56 | 1012.9 |
| 20260505060403 | 13 | 259 | 0.0 | 1.6 | 0.00 | 0.00 | 0.00 | 56 | 1012.9 |
| 20260505055858 | 13 | 259 | 1.6 | 1.6 | 0.00 | 0.00 | 0.00 | 56 | 1012.9 |
| 20260505055355 | 13 | 258 | 0.0 | 1.6 | 0.00 | 0.00 | 0.00 | 55 | 1013.0 |
| 20260505054851 | 13 | 258 | 0.0 | 1.6 | 0.00 | 0.00 | 0.00 | 54 | 1013.0 |
| 20260505054348 | 13 | 259 | 0.0 | 1.6 | 0.00 | 0.00 | 0.00 | 54 | 1013.1 |
| 20260505053847 | 14 | 262 | 0.0 | 1.6 | 0.00 | 0.00 | 0.00 | 54 | 1012.9 |
| 20260505053343 | 13 | 262 | 1.6 | 3.2 | 0.00 | 0.00 | 0.00 | 54 | 1012.9 |
| 20260505052840 | 13 | 260 | 0.0 | 0.0 | 0.00 | 0.00 | 0.00 | 55 | 1013.1 |
| 20260505052331 | 13 | 260 | 0.0 | 0.0 | 0.00 | 0.00 | 0.00 | 55 | 1013.1 |
| 20260505051828 | 13 | 260 | 0.0 | 0.0 | 0.00 | 0.00 | 0.00 | 56 | 1013.0 |
| 20260505051326 | 13 | 261 | 0.0 | 0.0 | 0.00 | 0.00 | 0.00 | 54 | 1012.9 |
| 20260505050824 | 13 | 243 | 0.0 | 0.0 | 0.00 | 0.00 | 0.00 | 55 | 1012.7 |
| 20260505050323 | 13 | 239 | 0.0 | 6.4 | 0.00 | 0.00 | 0.00 | 54 | 1013.0 |
| 20260505041746 | 15 | 230 | 0.0 | 0.0 | 0.00 | 0.00 | 0.00 | 49 | 1012.7 |
| 20260505041243 | 15 | 231 | 0.0 | 1.6 | 0.00 | 0.00 | 0.00 | 48 | 1012.6 |
| 20260505040741 | 15 | 237 | 0.0 | 1.6 | 0.00 | 0.00 | 0.00 | 49 | 1012.8 |
| 20260505040238 | 16 | 239 | 1.6 | 3.2 | 0.00 | 0.00 | 0.00 | 48 | 1012.7 |
| 20260505035735 | 15 | 246 | 1.6 | 3.2 | 0.00 | 0.00 | 0.00 | 48 | 1012.9 |
| 20260505035230 | 16 | 234 | 1.6 | 1.6 | 0.00 | 0.00 | 0.00 | 48 | 1012.8 |
| 20260505034728 | 16 | 228 | 0.0 | 3.2 | 0.00 | 0.00 | 0.00 | 47 | 1012.9 |
| 20260505034225 | 16 | 236 | 3.2 | 4.8 | 0.00 | 0.00 | 0.00 | 48 | 1013.0 |
| 20260505033721 | 16 | 241 | 3.2 | 3.2 | 0.00 | 0.00 | 0.00 | 48 | 1013.0 |
| 20260505033219 | 16 | 245 | 3.2 | 4.8 | 0.00 | 0.00 | 0.00 | 49 | 1013.2 |
| 20260505032716 | 16 | 249 | 3.2 | 4.8 | 0.00 | 0.00 | 0.00 | 49 | 1012.9 |
| 20260505032207 | 16 | 265 | 3.2 | 3.2 | 0.00 | 0.00 | 0.00 | 49 | 1013.2 |
| 20260505031704 | 16 | 244 | 0.0 | 4.8 | 0.00 | 0.00 | 0.00 | 50 | 1013.1 |
| 20260505031201 | 16 | 226 | 0.0 | 1.6 | 0.00 | 0.00 | 0.00 | 50 | 1013.2 |
| 20260505030657 | 16 | 230 | 1.6 | 3.2 | 0.00 | 0.00 | 0.00 | 50 | 1013.3 |
| 20260505030153 | 15 | 233 | 0.0 | 1.6 | 0.00 | 0.00 | 0.00 | 52 | 1013.3 |
| 20260505025649 | 16 | 234 | 1.6 | 1.6 | 0.00 | 0.00 | 0.00 | 51 | 1013.2 |
| 20260505025148 | 16 | 226 | 0.0 | 0.0 | 0.00 | 0.00 | 0.00 | 52 | 1013.3 |
| 20260505024645 | 16 | 238 | 0.0 | 1.6 | 0.00 | 0.00 | 0.00 | 51 | 1013.2 |
| 20260505024142 | 15 | 262 | 1.6 | 4.8 | 0.00 | 0.00 | 0.00 | 53 | 1013.2 |
| 20260505023640 | 15 | 243 | 0.0 | 1.6 | 0.00 | 0.00 | 0.00 | 55 | 1013.4 |
| 20260505023137 | 15 | 243 | 0.0 | 0.0 | 0.00 | 0.00 | 0.00 | 54 | 1013.3 |
| 20260505022634 | 15 | 244 | 0.0 | 0.0 | 0.00 | 0.00 | 0.00 | 53 | 1013.2 |
| 20260505022131 | 16 | 242 | 0.0 | 0.0 | 0.00 | 0.00 | 0.00 | 53 | 1013.2 |
| 20260505021628 | 16 | 240 | 0.0 | 0.0 | 0.00 | 0.00 | 0.00 | 53 | 1013.3 |
| 20260505021125 | 16 | 238 | 0.0 | 0.0 | 0.00 | 0.00 | 0.00 | 52 | 1013.3 |
| 20260505020620 | 16 | 238 | 0.0 | 1.6 | 0.00 | 0.00 | 0.00 | 51 | 1013.4 |
| 20260505020116 | 17 | 240 | 1.6 | 1.6 | 0.00 | 0.00 | 0.00 | 50 | 1013.3 |
| 20260505015614 | 17 | 235 | 0.0 | 1.6 | 0.00 | 0.00 | 0.00 | 50 | 1013.4 |
| 20260505015110 | 17 | 226 | 1.6 | 1.6 | 0.00 | 0.00 | 0.00 | 50 | 1013.3 |
| 20260505014607 | 17 | 248 | 1.6 | 3.2 | 0.00 | 0.00 | 0.00 | 50 | 1013.3 |
| 20260505014104 | 17 | 236 | 1.6 | 3.2 | 0.00 | 0.00 | 0.00 | 51 | 1013.3 |
| 20260505013601 | 17 | 250 | 1.6 | 1.6 | 0.00 | 0.00 | 0.00 | 52 | 1013.1 |
| 20260505013059 | 17 | 243 | 1.6 | 3.2 | 0.00 | 0.00 | 0.00 | 52 | 1013.2 |
| 20260505012556 | 17 | 228 | 1.6 | 6.4 | 0.00 | 0.00 | 0.00 | 51 | 1013.2 |
| 20260505012053 | 16 | 259 | 6.4 | 6.4 | 0.00 | 0.00 | 0.00 | 55 | 1013.1 |
| 20260505011549 | 16 | 248 | 0.0 | 1.6 | 0.00 | 0.00 | 0.00 | 56 | 1013.2 |
| 20260505011047 | 16 | 248 | 0.0 | 1.6 | 0.00 | 0.00 | 0.00 | 58 | 1013.1 |
| 20260505010542 | 16 | 249 | 0.0 | 1.6 | 0.00 | 0.00 | 0.00 | 59 | 1013.1 |
| 20260505010039 | 16 | 229 | 0.0 | 0.0 | 0.00 | 0.00 | 0.00 | 59 | 1012.9 |
| 20260505005535 | 16 | 229 | 0.0 | 0.0 | 0.00 | 0.00 | 0.00 | 60 | 1012.9 |
| 20260505005033 | 16 | 226 | 0.0 | 0.0 | 0.00 | 0.00 | 0.00 | 61 | 1012.8 |
| 20260505004529 | 16 | 225 | 0.0 | 1.6 | 0.00 | 0.00 | 0.00 | 61 | 1012.6 |
| 20260505004026 | 16 | 226 | 0.0 | 0.0 | 0.00 | 0.00 | 0.00 | 61 | 1012.7 |
| 20260505003523 | 16 | 226 | 0.0 | 0.0 | 0.00 | 0.00 | 0.00 | 59 | 1012.6 |
| 20260505003020 | 17 | 225 | 0.0 | 0.0 | 0.00 | 0.00 | 0.00 | 58 | 1012.3 |
| 20260505002515 | 17 | 255 | 0.0 | 1.6 | 0.00 | 0.00 | 0.00 | 57 | 1012.3 |
| 20260505002014 | 17 | 236 | 0.0 | 1.6 | 0.00 | 0.00 | 0.00 | 56 | 1012.4 |
| 20260505001511 | 18 | 235 | 0.0 | 0.0 | 0.00 | 0.00 | 0.00 | 54 | 1012.4 |
| 20260505001008 | 18 | 235 | 0.0 | 1.6 | 0.00 | 0.00 | 0.00 | 53 | 1012.3 |
| 20260505000505 | 18 | 219 | 0.0 | 0.0 | 0.00 | 0.00 | 0.00 | 51 | 1012.2 |
| 20260505000002 | 18 | 224 | 0.0 | 1.6 | 0.00 | 0.00 | 0.00 | 51 | 1012.6 |
| 20260504235459 | 19 | 213 | 0.0 | 1.6 | 0.00 | 0.00 | 0.00 | 50 | 1012.1 |
| 20260504234956 | 20 | 213 | 1.6 | 1.6 | 0.00 | 0.00 | 0.00 | 49 | 1012.0 |
| 20260504234453 | 20 | 226 | 1.6 | 1.6 | 0.00 | 0.00 | 0.00 | 48 | 1012.3 |
| 20260504233949 | 20 | 222 | 0.0 | 1.6 | 0.00 | 0.00 | 0.00 | 46 | 1012.2 |
| 20260504233445 | 21 | 232 | 1.6 | 1.6 | 0.00 | 0.00 | 0.00 | 45 | 1012.2 |
| 20260504232942 | 21 | 231 | 3.2 | 3.2 | 0.00 | 0.00 | 0.00 | 44 | 1012.2 |
| 20260504232439 | 21 | 204 | 1.6 | 3.2 | 0.00 | 0.00 | 0.00 | 44 | 1012.0 |
| 20260504231937 | 22 | 215 | 1.6 | 1.6 | 0.00 | 0.00 | 0.00 | 43 | 1012.0 |
| 20260504231433 | 22 | 233 | 0.0 | 4.8 | 0.00 | 0.00 | 0.00 | 42 | 1012.0 |
| 20260504230929 | 22 | 230 | 1.6 | 4.8 | 0.00 | 0.00 | 0.00 | 42 | 1012.2 |
| 20260504230426 | 21 | 262 | 6.4 | 9.7 | 0.00 | 0.00 | 0.00 | 42 | 1011.9 |
| 20260504225925 | 22 | 257 | 1.6 | 9.7 | 0.00 | 0.00 | 0.00 | 42 | 1011.9 |
| 20260504225421 | 21 | 249 | 3.2 | 9.7 | 0.00 | 0.00 | 0.00 | 43 | 1011.9 |
| 20260504224919 | 21 | 311 | 4.8 | 9.7 | 0.00 | 0.00 | 0.00 | 42 | 1012.1 |
| 20260504224415 | 22 | 221 | 6.4 | 9.7 | 0.00 | 0.00 | 0.00 | 41 | 1012.2 |
| 20260504223913 | 22 | 284 | 4.8 | 9.7 | 0.00 | 0.00 | 0.00 | 41 | 1012.1 |
| 20260504223408 | 22 | 244 | 0.0 | 4.8 | 0.00 | 0.00 | 0.00 | 42 | 1012.1 |
| 20260504222904 | 22 | 277 | 3.2 | 11.3 | 0.00 | 0.00 | 0.00 | 42 | 1012.0 |
| 20260504222401 | 22 | 238 | 3.2 | 11.3 | 0.00 | 0.00 | 0.00 | 42 | 1012.2 |
| 20260504221900 | 22 | 246 | 4.8 | 6.4 | 0.00 | 0.00 | 0.00 | 43 | 1012.1 |
| 20260504221356 | 21 | 230 | 3.2 | 11.3 | 0.00 | 0.00 | 0.00 | 42 | 1012.3 |
| 20260504220853 | 22 | 309 | 11.3 | 14.5 | 0.00 | 0.00 | 0.00 | 42 | 1012.4 |
| 20260504220350 | 22 | 272 | 8.0 | 17.7 | 0.00 | 0.00 | 0.00 | 42 | 1012.3 |
| 20260504215847 | 22 | 253 | 8.0 | 12.9 | 0.00 | 0.00 | 0.00 | 43 | 1012.3 |
| 20260504215343 | 21 | 252 | 4.8 | 11.3 | 0.00 | 0.00 | 0.00 | 43 | 1012.3 |
| 20260504214839 | 21 | 259 | 8.0 | 12.9 | 0.00 | 0.00 | 0.00 | 43 | 1012.4 |
| 20260504214337 | 22 | 263 | 6.4 | 14.5 | 0.00 | 0.00 | 0.00 | 43 | 1012.3 |
| 20260504213833 | 21 | 264 | 4.8 | 12.9 | 0.00 | 0.00 | 0.00 | 43 | 1012.4 |
| 20260504213329 | 21 | 241 | 8.0 | 17.7 | 0.00 | 0.00 | 0.00 | 44 | 1012.4 |
| 20260504212827 | 21 | 272 | 9.7 | 16.1 | 0.00 | 0.00 | 0.00 | 44 | 1012.6 |
| 20260504212322 | 22 | 256 | 8.0 | 14.5 | 0.00 | 0.00 | 0.00 | 45 | 1012.4 |
| 20260504211821 | 22 | 242 | 8.0 | 17.7 | 0.00 | 0.00 | 0.00 | 45 | 1012.6 |
| 20260504211316 | 22 | 247 | 6.4 | 11.3 | 0.00 | 0.00 | 0.00 | 44 | 1012.8 |
| 20260504210814 | 21 | 271 | 3.2 | 6.4 | 0.00 | 0.00 | 0.00 | 44 | 1012.7 |
| 20260504210311 | 21 | 221 | 3.2 | 11.3 | 0.00 | 0.00 | 0.00 | 45 | 1012.6 |
| 20260504205808 | 21 | 263 | 4.8 | 14.5 | 0.00 | 0.00 | 0.00 | 46 | 1012.6 |
| 20260504205306 | 22 | 243 | 9.7 | 12.9 | 0.00 | 0.00 | 0.00 | 44 | 1012.6 |
| 20260504204804 | 21 | 204 | 4.8 | 17.7 | 0.00 | 0.00 | 0.00 | 46 | 1012.4 |
| 20260504204302 | 22 | 226 | 8.0 | 17.7 | 0.00 | 0.00 | 0.00 | 45 | 1012.6 |
| 20260504203801 | 22 | 181 | 6.4 | 14.5 | 0.00 | 0.00 | 0.00 | 46 | 1012.6 |
| 20260504203258 | 21 | 207 | 1.6 | 12.9 | 0.00 | 0.00 | 0.00 | 46 | 1012.6 |
| 20260504202753 | 21 | 283 | 9.7 | 12.9 | 0.00 | 0.00 | 0.00 | 45 | 1012.8 |
| 20260504202250 | 21 | 261 | 4.8 | 16.1 | 0.00 | 0.00 | 0.00 | 46 | 1012.8 |
| 20260504201747 | 21 | 249 | 3.2 | 14.5 | 0.00 | 0.00 | 0.00 | 45 | 1012.7 |
| 20260504201244 | 22 | 236 | 4.8 | 4.8 | 0.00 | 0.00 | 0.00 | 44 | 1012.8 |
| 20260504200742 | 21 | 188 | 3.2 | 9.7 | 0.00 | 0.00 | 0.00 | 46 | 1012.8 |
| 20260504200237 | 21 | 277 | 6.4 | 11.3 | 0.00 | 0.00 | 0.00 | 47 | 1012.9 |
| 20260504195734 | 21 | 246 | 6.4 | 20.9 | 0.00 | 0.00 | 0.00 | 44 | 1013.0 |
| 20260504195230 | 20 | 206 | 3.2 | 4.8 | 0.00 | 0.00 | 0.00 | 47 | 1013.1 |
| 20260504194727 | 21 | 268 | 6.4 | 14.5 | 0.00 | 0.00 | 0.00 | 47 | 1013.1 |
| 20260504194223 | 20 | 277 | 8.0 | 16.1 | 0.00 | 0.00 | 0.00 | 48 | 1013.1 |
| 20260504193720 | 20 | 198 | 6.4 | 20.9 | 0.00 | 0.00 | 0.00 | 47 | 1013.2 |
| 20260504193218 | 20 | 264 | 8.0 | 14.5 | 0.00 | 0.00 | 0.00 | 48 | 1013.1 |
| 20260504192716 | 20 | 278 | 4.8 | 17.7 | 0.00 | 0.00 | 0.00 | 49 | 1013.6 |
| 20260504192213 | 20 | 311 | 6.4 | 12.9 | 0.00 | 0.00 | 0.00 | 49 | 1013.4 |
| 20260504191712 | 20 | 199 | 3.2 | 12.9 | 0.00 | 0.00 | 0.00 | 50 | 1013.4 |
| 20260504191208 | 20 | 223 | 4.8 | 11.3 | 0.00 | 0.00 | 0.00 | 50 | 1013.6 |
| 20260504190703 | 19 | 238 | 6.4 | 17.7 | 0.00 | 0.00 | 0.00 | 50 | 1013.7 |
| 20260504190200 | 19 | 268 | 8.0 | 16.1 | 0.00 | 0.00 | 0.00 | 50 | 1013.6 |
| 20260504185657 | 20 | 229 | 3.2 | 12.9 | 0.00 | 0.00 | 0.00 | 49 | 1013.8 |
| 20260504185153 | 19 | 151 | 1.6 | 6.4 | 0.00 | 0.00 | 0.00 | 49 | 1013.9 |
| 20260504184649 | 19 | 181 | 4.8 | 14.5 | 0.00 | 0.00 | 0.00 | 49 | 1013.7 |
| 20260504184144 | 19 | 276 | 14.5 | 17.7 | 0.00 | 0.00 | 0.00 | 49 | 1013.7 |
| 20260504183642 | 18 | 224 | 3.2 | 14.5 | 0.00 | 0.00 | 0.00 | 51 | 1014.1 |
| 20260504183139 | 18 | 243 | 3.2 | 11.3 | 0.00 | 0.00 | 0.00 | 50 | 1013.9 |
| 20260504182637 | 18 | 281 | 9.7 | 17.7 | 0.00 | 0.00 | 0.00 | 50 | 1014.2 |
| 20260504182134 | 18 | 154 | 4.8 | 16.1 | 0.00 | 0.00 | 0.00 | 50 | 1014.3 |
| 20260504181632 | 19 | 225 | 6.4 | 12.9 | 0.00 | 0.00 | 0.00 | 50 | 1014.3 |
| 20260504181129 | 19 | 229 | 4.8 | 11.3 | 0.00 | 0.00 | 0.00 | 50 | 1014.2 |
| 20260504180628 | 19 | 211 | 6.4 | 11.3 | 0.00 | 0.00 | 0.00 | 50 | 1014.3 |
| 20260504180126 | 18 | 240 | 4.8 | 11.3 | 0.00 | 0.00 | 0.00 | 52 | 1014.4 |
| 20260504175623 | 18 | 256 | 9.7 | 16.1 | 0.00 | 0.00 | 0.00 | 52 | 1014.4 |
| 20260504175120 | 18 | 235 | 4.8 | 6.4 | 0.00 | 0.00 | 0.00 | 52 | 1014.5 |
| 20260504174618 | 17 | 273 | 8.0 | 24.1 | 0.00 | 0.00 | 0.00 | 53 | 1014.7 |
| 20260504174114 | 18 | 253 | 6.4 | 9.7 | 0.00 | 0.00 | 0.00 | 53 | 1014.7 |
| 20260504173611 | 17 | 234 | 3.2 | 6.4 | 0.00 | 0.00 | 0.00 | 54 | 1014.6 |
| 20260504173109 | 17 | 325 | 4.8 | 11.3 | 0.00 | 0.00 | 0.00 | 54 | 1014.7 |
| 20260504172605 | 17 | 238 | 4.8 | 6.4 | 0.00 | 0.00 | 0.00 | 54 | 1014.9 |
| 20260504172102 | 18 | 245 | 4.8 | 9.7 | 0.00 | 0.00 | 0.00 | 52 | 1014.9 |
| 20260504171558 | 18 | 195 | 4.8 | 9.7 | 0.00 | 0.00 | 0.00 | 55 | 1014.8 |
| 20260504171055 | 18 | 201 | 6.4 | 17.7 | 0.00 | 0.00 | 0.00 | 54 | 1014.9 |
| 20260504170551 | 17 | 248 | 3.2 | 14.5 | 0.00 | 0.00 | 0.00 | 54 | 1014.9 |